TimeMST,TemperatureF,Dew PointF,Humidity,Sea Level PressureIn,VisibilityMPH,Wind Direction,Wind SpeedMPH,Gust SpeedMPH,PrecipitationIn,Events,Conditions,WindDirDegrees,DateUTC
12:51 AM,34.0,28.9,82,30.15,-9999.0,NW,4.6,-,N/A,,Overcast,320,2012-11-06 07:51:00
1:51 AM,35.1,28.9,78,30.17,-9999.0,West,8.1,-,N/A,,Overcast,280,2012-11-06 08:51:00
2:51 AM,34.0,28.9,82,30.18,-9999.0,West,8.1,-,N/A,,Overcast,280,2012-11-06 09:51:00
5:51 AM,30.0,25.0,82,30.21,-9999.0,West,9.2,-,N/A,,Clear,280,2012-11-06 12:51:00
7:51 AM,33.1,25.0,72,30.26,-9999.0,West,9.2,-,N/A,,Clear,260,2012-11-06 14:51:00
8:51 AM,37.9,27.0,65,30.26,-9999.0,West,6.9,-,N/A,,Clear,280,2012-11-06 15:51:00
9:51 AM,43.0,27.0,53,30.25,-9999.0,WNW,12.7,-,N/A,,Clear,290,2012-11-06 16:51:00
10:51 AM,46.9,26.1,44,30.23,-9999.0,WNW,16.1,21.9,N/A,,Clear,290,2012-11-06 17:51:00
11:51 AM,50.0,25.0,38,30.20,-9999.0,WNW,16.1,-,N/A,,Clear,300,2012-11-06 18:51:00
12:51 PM,51.1,23.0,33,30.19,-9999.0,WNW,16.1,-,N/A,,Clear,300,2012-11-06 19:51:00
1:51 PM,51.1,23.0,33,30.16,-9999.0,NW,10.4,-,N/A,,Clear,310,2012-11-06 20:51:00
3:51 PM,48.9,23.0,36,30.18,-9999.0,WNW,6.9,-,N/A,,Clear,300,2012-11-06 22:51:00
4:51 PM,42.1,25.0,51,30.18,-9999.0,Calm,Calm,-,N/A,,Clear,0,2012-11-06 23:51:00
5:51 PM,36.0,25.0,64,30.18,-9999.0,SSW,5.8,-,N/A,,Clear,200,2012-11-07 00:51:00
6:51 PM,34.0,25.0,70,30.17,-9999.0,SSE,3.5,-,N/A,,Partly Cloudy,160,2012-11-07 01:51:00
7:51 PM,34.0,26.1,73,30.14,-9999.0,East,4.6,-,N/A,,Partly Cloudy,90,2012-11-07 02:51:00
8:51 PM,32.0,25.0,75,30.12,-9999.0,SE,4.6,-,N/A,,Clear,140,2012-11-07 03:51:00
9:51 PM,30.9,25.0,79,30.11,-9999.0,ESE,4.6,-,N/A,,Clear,110,2012-11-07 04:51:00
10:51 PM,30.0,24.1,79,30.07,-9999.0,SE,5.8,-,N/A,,Clear,130,2012-11-07 05:51:00
11:51 PM,34.0,26.1,73,30.05,-9999.0,SE,12.7,-,N/A,,Clear,140,2012-11-07 06:51:00